This is the latest recevied weather packets stored in our database for station/object SP5MRF. If no packets are shown the sender has not sent any weather packets the latest 10 day(s).
| Time | Temp. | Humidity | Pressure | Rain* | Wind** | Luminosity | Snow |
|---|---|---|---|---|---|---|---|
| 1788563085 | 17.78° C | 89% | 1001.3 hPa | 0 mm | - | - | - |
| 1788562608 | 17.78° C | 89% | 1001 hPa | 0 mm | - | - | - |
| 1788562126 | 17.78° C | 89% | 1000.9 hPa | 0 mm | - | - | - |
| 1788561645 | 17.78° C | 89% | 1000.8 hPa | 0 mm | - | - | - |
| 1788561165 | 17.22° C | 89% | 1000.3 hPa | 0 mm | - | - | - |
| 1788560685 | 17.22° C | 89% | 1000.7 hPa | 0 mm | - | - | - |
| 1788560205 | 17.22° C | 88% | 1000.7 hPa | 0 mm | - | - | - |
| 1788559725 | 17.22° C | 88% | 1000.5 hPa | 0 mm | - | - | - |
| 1788559245 | 17.22° C | 88% | 1000.7 hPa | 0 mm | - | - | - |
| 1788558765 | 16.67° C | 88% | 1000.8 hPa | 0 mm | - | - | - |
| 1788558286 | 16.67° C | 88% | 1000.8 hPa | 0 mm | - | - | - |
| 1788557806 | 16.67° C | 87% | 1000.9 hPa | 0 mm | - | - | - |
| 1788557325 | 17.22° C | 87% | 1000.4 hPa | 0 mm | - | - | - |
| 1788556845 | 17.22° C | 87% | 1000.3 hPa | 0 mm | - | - | - |
| 1788556365 | 17.22° C | 87% | 1000.5 hPa | 0 mm | - | - | - |
| 1788555885 | 17.22° C | 87% | 1000.5 hPa | 0.51 mm | - | - | - |
| 1788555406 | 17.22° C | 86% | 1000.1 hPa | 0.51 mm | - | - | - |
| 1788554925 | 17.22° C | 86% | 1000 hPa | 1.52 mm | - | - | - |
| 1788554446 | 17.78° C | 86% | 1000.6 hPa | 1.52 mm | - | - | - |
| 1788553968 | 17.78° C | 86% | 1000.4 hPa | 1.52 mm | - | - | - |
| 1788553485 | 17.78° C | 85% | 1000.4 hPa | 1.52 mm | - | - | - |
| 1788553005 | 18.33° C | 84% | 999.8 hPa | 1.52 mm | - | - | - |
| 1788552048 | 19.44° C | 82% | 1000.3 hPa | 1.02 mm | - | - | - |
| 1788551567 | 20° C | 80% | 998.9 hPa | 0 mm | - | - | - |
| 1788551086 | 20° C | 77% | 998.8 hPa | 0 mm | - | - | - |
* Rain latest hour (hover to see other rain measurements)
** Current wind speed in m/s (hover to see current wind gust speed)